Home   Weather   Hollabrunn   Past weeks

Flag for Austria Past Weather in Hollabrunn, Lower Austria, Austria — Yesterday and Last 2 Weeks

Now
47 °F

Passing clouds.


Feels Like: 44 °F
Forecast: 41 / 50 °F
Wind: 6 mph from West

Location: Retz

Current Time: Feb 20, 2017 at 2:39:26 pm

Latest Report: Feb 20, 2017 at 1:00 pm


Visibility: 13 mi

Pressure: 30.14 "Hg

Humidity: 62%

Dew Point: 35 °F

Location of HollabrunnLocation

Past Weather in Hollabrunn — Graph

°F

Hollabrunn Temperature Yesterday

Maximum temperature yesterday: 42 °F (at 4:00 pm)
Minimum temperature yesterday: 31 °F (at 6:00 am)
Average temperature yesterday: 36 °F

High & Low Weather Summary for the Past Weeks

 TemperatureHumidityPressure
High51 °F (Feb 15, 3:00 pm)100% (Feb 6, 8:00 am)30.65 "Hg (Feb 6, 8:00 am)
Low23 °F (Feb 9, 8:00 am)40% (Feb 15, 4:00 pm)29.70 "Hg (Feb 5, 1:00 pm)
Average33 °F82%30.33 "Hg
* Reported Feb 5 1:00 pm — Feb 20 1:00 pm, Hollabrunn, Weather by CustomWeather, © 2017

Note: Actual official high and low records may vary slightly from our data, if they occured in-between our weather recording intervals... More about our weather records

Advertising

Hollabrunn Weather History for the Previous 24 Hours

Scroll right to see more
 ConditionsComfort  
Time TempWeatherWind HumidityBarometerVisibility
1:00 pm
Mon, Feb 20
47 °FPassing clouds.6 mph62%30.14 "Hg12 mi
12:00 pm45 °FQuite cool.6 mph69%30.16 "HgN/A
11:00 am41 °FQuite cool.3 mph80%30.19 "HgN/A
10:00 am38 °FChilly.3 mph83%30.20 "HgN/A
9:00 am36 °FChilly.2 mph84%30.21 "HgN/A
8:00 am36 °FChilly.2 mph83%30.21 "HgN/A
7:00 am35 °FOvercast.1 mph82%30.20 "Hg5 mi
6:00 am36 °FChilly.3 mph79%30.19 "HgN/A
5:00 am34 °FChilly.2 mph83%30.19 "HgN/A
4:00 am36 °FChilly.2 mph77%30.19 "HgN/A
3:00 am36 °FChilly.5 mph77%30.20 "HgN/A
2:00 am36 °FChilly.5 mph79%30.21 "HgN/A
1:00 am36 °FChilly.7 mph79%30.20 "HgN/A
12:00 am36 °FChilly.8 mph79%30.19 "HgN/A
11:00 pm
Sun, Feb 19
37 °FChilly.5 mph76%30.19 "HgN/A
10:00 pm36 °FChilly.6 mph81%30.18 "HgN/A
9:00 pm36 °FChilly.2 mph92%30.19 "HgN/A
8:00 pm36 °FChilly.1 mph90%30.19 "HgN/A
7:00 pm37 °FClear.1 mph90%30.19 "Hg3 mi
6:00 pm37 °FChilly.2 mph90%30.19 "HgN/A
5:00 pm40 °FQuite cool.1 mph81%30.19 "HgN/A
4:00 pm42 °FQuite cool.No wind78%30.21 "HgN/A
3:00 pm41 °FQuite cool.1 mph80%30.23 "HgN/A
2:00 pm38 °FChilly.1 mph88%30.26 "HgN/A
Weather by CustomWeather, © 2017

See weather overviewHow to use our weather pages